Weather WX

World > North America > United States > Missouri

Burke City, Missouri Regional Weather

Lat: 38.75N, Lon: 90.3W
Wx Zone: MOZ063
Warning FLW WEATHER ALERT - (More Info. Click Here) Warning
Feedback

Burke City, MO Regional Weather

Expires:201906260200;;079964
ASUS43 KEAX 260110
RWREAX

WEATHER ROUNDUP FOR EASTERN KANSAS AND NORTHWEST MISSOURI
NATIONAL WEATHER SERVICE KANSAS CITY/PLEASANT HILL MO
800 PM CDT TUE JUN 25 2019


MOZ041-047>049-056>058-063>065-088>090-097-260200-
...EASTERN AND SOUTHERN MISSOURI...
  
CITY           SKY/WX    TMP DP  RH WIND       PRES   REMARKS
ST. LOUIS INTL PTCLDY    85  63  47 SW8       29.96F                  
SPIRIT OF STL  CLEAR     84  67  56 S6        29.95F                  
COLUMBIA       CLEAR     81  66  60 S6        29.94F                  
ROLLA          PTCLDY    78  66  66 S7        29.99F                  
OSAGE BEACH    CLEAR     82  68  62 S5        29.97F                  
SPRINGFIELD    CLEAR     81  67  62 S9        29.97F                  
BRANSON        PTCLDY    81  70  69 S6        30.02R                  
JOPLIN         CLEAR     81  70  69 S8        29.96S                  
WEST PLAINS    CLEAR     81  67  62 S3        30.03S                  

$$


SKY/WX - Weather  TMP - Temperature  DP - Dew Point  RH - Relative Humidity
WIND - Wind Direction/Speed PRES - Barometric Pressure VSB - Visibility
WCI - Wind Chill Index E13G22 Wind - East Wind 13 mph/Gusts of 22 mph